TimeMST,TemperatureF,Dew PointF,Humidity,Sea Level PressureIn,VisibilityMPH,Wind Direction,Wind SpeedMPH,Gust SpeedMPH,PrecipitationIn,Events,Conditions,WindDirDegrees,DateUTC
12:15 AM,44.6,24.8,46,30.02,10.0,WNW,8.1,-,N/A,,Overcast,290,2013-09-27 07:15:00
12:35 AM,44.6,24.8,46,30.02,10.0,WNW,4.6,-,N/A,,Overcast,290,2013-09-27 07:35:00
12:55 AM,44.6,24.8,46,30.03,10.0,WNW,6.9,-,N/A,,Overcast,290,2013-09-27 07:55:00
1:15 AM,44.6,26.6,49,30.04,9.0,West,11.5,-,N/A,,Overcast,270,2013-09-27 08:15:00
1:35 AM,41.0,30.2,65,30.03,10.0,Calm,Calm,-,N/A,,Overcast,0,2013-09-27 08:35:00
1:55 AM,41.0,28.4,61,30.03,10.0,North,4.6,-,N/A,,Mostly Cloudy,350,2013-09-27 08:55:00
2:15 AM,41.0,28.4,61,30.03,10.0,ENE,5.8,-,N/A,,Mostly Cloudy,60,2013-09-27 09:15:00
2:35 AM,41.0,32.0,70,30.04,10.0,Calm,Calm,-,N/A,,Overcast,0,2013-09-27 09:35:00
2:55 AM,41.0,32.0,70,30.04,10.0,NNW,4.6,-,N/A,,Overcast,340,2013-09-27 09:55:00
3:15 AM,41.0,30.2,65,30.03,10.0,North,4.6,-,N/A,,Overcast,350,2013-09-27 10:15:00
3:35 AM,41.0,28.4,61,30.04,10.0,NNW,5.8,-,N/A,,Overcast,330,2013-09-27 10:35:00
3:55 AM,41.0,28.4,61,30.04,10.0,NNW,4.6,-,N/A,,Overcast,330,2013-09-27 10:55:00
4:15 AM,41.0,28.4,61,30.04,10.0,Calm,Calm,-,N/A,,Mostly Cloudy,0,2013-09-27 11:15:00
4:35 AM,41.0,28.4,61,30.04,10.0,WNW,3.5,-,N/A,,Overcast,300,2013-09-27 11:35:00
4:55 AM,41.0,28.4,61,30.05,10.0,WNW,4.6,-,N/A,,Overcast,300,2013-09-27 11:55:00
5:15 AM,39.2,26.6,61,30.06,10.0,NW,4.6,-,N/A,,Mostly Cloudy,310,2013-09-27 12:15:00
5:35 AM,37.4,24.8,60,30.06,10.0,NW,6.9,-,N/A,,Partly Cloudy,310,2013-09-27 12:35:00
5:55 AM,37.4,24.8,60,30.07,10.0,West,3.5,-,N/A,,Clear,280,2013-09-27 12:55:00
6:15 AM,35.6,24.8,65,30.07,10.0,WNW,5.8,-,N/A,,Clear,300,2013-09-27 13:15:00
6:35 AM,35.6,24.8,65,30.08,10.0,WNW,4.6,-,N/A,,Clear,300,2013-09-27 13:35:00
6:55 AM,35.6,24.8,65,30.09,10.0,NW,3.5,-,N/A,,Clear,310,2013-09-27 13:55:00
7:15 AM,37.4,26.6,65,30.10,10.0,Calm,Calm,-,N/A,,Clear,0,2013-09-27 14:15:00
7:35 AM,39.2,24.8,56,30.10,10.0,Calm,Calm,-,N/A,,Clear,0,2013-09-27 14:35:00
7:55 AM,41.0,24.8,53,30.11,10.0,NNW,5.8,-,N/A,,Clear,340,2013-09-27 14:55:00
8:15 AM,41.0,23.0,49,30.12,10.0,North,6.9,-,N/A,,Clear,350,2013-09-27 15:15:00
8:35 AM,42.8,23.0,46,30.12,10.0,North,3.5,-,N/A,,Clear,350,2013-09-27 15:35:00
8:55 AM,44.6,21.2,39,30.13,10.0,North,4.6,-,N/A,,Clear,350,2013-09-27 15:55:00
9:15 AM,44.6,21.2,39,30.14,10.0,North,8.1,-,N/A,,Clear,350,2013-09-27 16:15:00
9:35 AM,46.4,21.2,37,30.15,10.0,NNW,8.1,-,N/A,,Clear,340,2013-09-27 16:35:00
9:55 AM,46.4,21.2,37,30.15,10.0,NNW,10.4,-,N/A,,Clear,340,2013-09-27 16:55:00
10:15 AM,48.2,19.4,32,30.16,10.0,North,5.8,-,N/A,,Clear,360,2013-09-27 17:15:00
10:35 AM,48.2,23.0,37,30.16,10.0,North,9.2,-,N/A,,Clear,360,2013-09-27 17:35:00
10:55 AM,48.2,19.4,32,30.16,10.0,North,10.4,16.1,N/A,,Clear,350,2013-09-27 17:55:00
11:15 AM,50.0,17.6,28,30.16,10.0,North,9.2,-,N/A,,Clear,360,2013-09-27 18:15:00
11:35 AM,50.0,19.4,30,30.16,10.0,NW,5.8,-,N/A,,Clear,310,2013-09-27 18:35:00
11:55 AM,51.8,17.6,26,30.16,10.0,NNE,5.8,-,N/A,,Clear,20,2013-09-27 18:55:00
12:15 PM,53.6,15.8,22,30.17,10.0,NW,9.2,16.1,N/A,,Clear,310,2013-09-27 19:15:00
12:35 PM,53.6,17.6,24,30.17,10.0,NNW,5.8,-,N/A,,Clear,340,2013-09-27 19:35:00
12:55 PM,53.6,19.4,26,30.17,10.0,North,6.9,-,N/A,,Clear,10,2013-09-27 19:55:00
1:15 PM,53.6,17.6,24,30.16,10.0,WNW,5.8,-,N/A,,Clear,300,2013-09-27 20:15:00
1:35 PM,55.4,17.6,23,30.17,10.0,NNW,9.2,16.1,N/A,,Clear,340,2013-09-27 20:35:00
1:55 PM,55.4,15.8,21,30.17,10.0,NW,6.9,16.1,N/A,,Clear,320,2013-09-27 20:55:00
2:15 PM,55.4,15.8,21,30.17,10.0,North,5.8,-,N/A,,Clear,10,2013-09-27 21:15:00
2:35 PM,55.4,17.6,23,30.17,10.0,NNW,10.4,17.3,N/A,,Clear,340,2013-09-27 21:35:00
2:55 PM,55.4,15.8,21,30.17,10.0,NW,5.8,-,N/A,,Clear,310,2013-09-27 21:55:00
3:15 PM,55.4,15.8,21,30.17,10.0,NNW,8.1,-,N/A,,Clear,330,2013-09-27 22:15:00
3:35 PM,55.4,14.0,20,30.18,10.0,NNW,6.9,-,N/A,,Clear,340,2013-09-27 22:35:00
3:55 PM,55.4,15.8,21,30.19,10.0,NNW,6.9,-,N/A,,Clear,330,2013-09-27 22:55:00
4:15 PM,55.4,17.6,23,30.19,10.0,WNW,10.4,-,N/A,,Clear,300,2013-09-27 23:15:00
4:35 PM,55.4,15.8,21,30.20,10.0,North,4.6,-,N/A,,Clear,350,2013-09-27 23:35:00
4:55 PM,55.4,17.6,23,30.20,10.0,NW,11.5,-,N/A,,Clear,320,2013-09-27 23:55:00
5:15 PM,53.6,15.8,22,30.21,10.0,NNW,10.4,16.1,N/A,,Clear,330,2013-09-28 00:15:00
5:35 PM,53.6,15.8,22,30.22,10.0,NNW,8.1,-,N/A,,Clear,340,2013-09-28 00:35:00
5:55 PM,51.8,15.8,24,30.22,10.0,North,8.1,-,N/A,,Clear,350,2013-09-28 00:55:00
6:15 PM,50.0,14.0,24,30.23,10.0,North,6.9,-,N/A,,Clear,10,2013-09-28 01:15:00
6:35 PM,46.4,14.0,27,30.23,10.0,North,5.8,-,N/A,,Clear,360,2013-09-28 01:35:00
6:55 PM,46.4,14.0,27,30.24,10.0,NNE,4.6,-,N/A,,Clear,20,2013-09-28 01:55:00
7:15 PM,44.6,15.8,31,30.24,10.0,Calm,Calm,-,N/A,,Clear,0,2013-09-28 02:15:00
7:35 PM,41.0,15.8,36,30.25,10.0,Calm,Calm,-,N/A,,Clear,0,2013-09-28 02:35:00
7:55 PM,41.0,15.8,36,30.26,10.0,Calm,Calm,-,N/A,,Clear,0,2013-09-28 02:55:00
8:15 PM,44.6,15.8,31,30.26,10.0,NNE,5.8,-,N/A,,Clear,20,2013-09-28 03:15:00
8:35 PM,41.0,17.6,39,30.27,10.0,Calm,Calm,-,N/A,,Clear,0,2013-09-28 03:35:00
8:55 PM,39.2,17.6,42,30.28,10.0,SE,5.8,-,N/A,,Clear,140,2013-09-28 03:55:00
9:15 PM,37.4,17.6,45,30.28,10.0,ESE,3.5,-,N/A,,Clear,120,2013-09-28 04:15:00
9:35 PM,37.4,17.6,45,30.28,10.0,SSE,3.5,-,N/A,,Clear,150,2013-09-28 04:35:00
9:55 PM,35.6,17.6,48,30.29,10.0,ESE,3.5,-,N/A,,Clear,110,2013-09-28 04:55:00
10:15 PM,32.0,17.6,55,30.29,10.0,ESE,4.6,-,N/A,,Clear,120,2013-09-28 05:15:00
10:35 PM,32.0,17.6,55,30.29,10.0,East,3.5,-,N/A,,Clear,80,2013-09-28 05:35:00
10:55 PM,33.8,19.4,56,30.29,10.0,SE,3.5,-,N/A,,Clear,140,2013-09-28 05:55:00
11:15 PM,33.8,19.4,56,30.29,10.0,South,4.6,-,N/A,,Clear,170,2013-09-28 06:15:00
11:35 PM,30.2,19.4,64,30.28,10.0,SSE,5.8,-,N/A,,Clear,160,2013-09-28 06:35:00
11:55 PM,30.2,19.4,64,30.28,10.0,SSE,6.9,-,N/A,,Clear,160,2013-09-28 06:55:00